[[{"header":{"parameterUnit":"m.s-1","parameterCategory":1,"la1":30.2991,"la2":30.254,"lo1":-89.0895,"lo2":-89.0444,"dy":0.0017,"dx":0.0017,"nx":28,"ny":28,"refTime":"2024-04-06T09:00:00:Z","depth":0,"parameterNumber":2,"parameterNumberName":"U-component_of_WINDS"},"data":[0,0,0,0,0,0,0,0,0,0,0,0,0,0,0,0,0,0,0,0,0,0,0,0,0,0,0,0,0,0,0,0,0,0,0,0,0,0,0,0,0,0,0,0,0,0,0,0,0,0,0,0,0,0,0,0,0,0,-3.1249,-3.125,0,-3.1346,-3.1347,-3.1348,-3.1374,-3.1373,-3.1373,-3.1372,-3.1469,-3.1472,-3.1475,0,0,0,0,0,0,0,0,0,0,0,0,0,-3.1088,-3.1091,-3.1249,-3.125,-3.1251,-3.1345,-3.1347,-3.1348,-3.1374,-3.1373,-3.1373,-3.1372,-3.1468,-3.1472,-3.1475,0,0,0,0,0,0,0,0,0,0,0,0,0,-3.1168,-3.1092,-3.1249,-3.1276,-3.1279,-3.1345,-3.1347,-3.1348,-3.1374,-3.1373,-3.1373,-3.1372,-3.1467,-3.1471,-3.1476,-3.1521,0,0,-3.149,-3.1492,0,0,0,0,0,0,0,0,-3.1164,-3.1174,-3.1271,-3.1274,-3.1278,-3.1347,-3.1325,-3.1406,-3.1374,-3.1338,-3.1372,-3.1371,-3.1429,-3.1437,-3.1457,-3.1526,-3.153,-3.1491,-3.1493,-3.1495,-3.1497,0,0,0,0,0,0,0,-3.1158,-3.117,-3.1287,-3.1272,-3.1277,-3.1283,-3.1294,-3.1341,-3.1387,-3.1341,-3.1343,-3.1355,-3.1431,-3.1452,-3.1459,-3.1531,-3.149,-3.1495,-3.1497,-3.1499,-3.1646,-3.1647,0,0,0,0,0,0,-3.1148,-3.1165,-3.1284,-3.129,-3.1218,-3.1287,-3.1299,-3.1326,-3.1387,-3.1395,-3.1355,-3.1355,-3.1445,-3.1454,-3.1463,-3.1521,-3.1495,-3.15,-3.1502,-3.1645,-3.1646,-3.1647,0,0,0,0,0,0,-3.1145,-3.1158,-3.128,-3.1229,-3.1245,-3.1291,-3.1321,-3.1328,-3.1349,-3.1397,-3.1405,-3.1368,-3.1444,-3.1456,-3.1507,-3.1524,-3.1502,-3.1506,-3.1643,-3.1645,-3.1647,-3.1637,0,0,0,0,0,0,-3.114,-3.1157,-3.1174,-3.1229,-3.1247,-3.1323,-3.1322,-3.133,-3.1357,-3.1359,-3.1412,-3.142,-3.1444,-3.15,-3.1512,-3.153,-3.151,-3.1642,-3.1644,-3.1646,-3.1636,-3.1638,-3.164,0,0,0,0,0,-3.1134,-3.1167,-3.1175,-3.1189,-3.127,-3.1324,-3.1334,-3.1363,-3.1359,-3.1377,-3.1408,-3.1418,-3.1521,-3.1505,-3.1519,-3.1539,-3.1641,-3.1643,-3.1646,-3.1635,-3.1638,-3.164,0,0,0,0,0,0,-3.1111,-3.1174,-3.1184,-3.1235,-3.1274,-3.1328,-3.1351,-3.1365,-3.1405,-3.1404,-3.1438,-3.1449,-3.1499,-3.1524,-3.1505,-3.1588,-3.1581,-3.1587,-3.1568,-3.1571,-3.1573,-3.1565,-3.1513,0,0,0,0,0,-3.1113,-3.1152,-3.1204,-3.1245,-3.1264,-3.1305,-3.1329,-3.1348,-3.139,-3.1406,-3.1441,-3.148,-3.1522,-3.1548,-3.1589,-3.1641,-3.1653,-3.1662,-3.1664,-3.1665,-3.1669,-3.1699,-3.1704,-3.1655,-3.1655,-3.1655,0,0,-3.1115,-3.1154,-3.1176,-3.1241,-3.1273,-3.1313,-3.1318,-3.1359,-3.1389,-3.1412,-3.1463,-3.149,-3.1537,-3.1589,-3.1613,-3.1612,-3.1685,-3.1668,-3.1669,-3.1672,-3.1702,-3.1707,-3.1711,-3.1657,-3.1657,-3.1656,0,0,-3.114,-3.1173,-3.1211,-3.1244,-3.1294,-3.1322,-3.1331,-3.1384,-3.1403,-3.1455,-3.1474,-3.1511,-3.1581,-3.1614,-3.164,-3.1682,-3.1692,-3.1694,-3.1704,-3.1734,-3.1737,-3.1741,-3.1756,-3.1761,-3.1698,-3.1698,-3.1698,0,-3.1136,-3.1197,-3.1229,-3.127,-3.1299,-3.1323,-3.1362,-3.1393,-3.1453,-3.1472,-3.147,-3.1561,-3.1594,-3.1655,-3.1666,-3.1686,-3.1698,-3.1687,-3.1734,-3.1738,-3.1742,-3.1757,-3.1763,-3.1698,-3.1698,-3.1698,-3.1698,0,-3.119,-3.1232,-3.1257,-3.1316,-3.1348,-3.1388,-3.1427,-3.1455,-3.1473,-3.1501,-3.1554,-3.1596,-3.1646,-3.1663,-3.1679,-3.1727,-3.1724,-3.1728,-3.1722,-3.1746,-3.1761,-3.1766,-3.1698,-3.1698,-3.1698,-3.1698,0,0,-3.12,-3.1279,-3.1288,-3.1316,-3.1374,-3.1407,-3.145,-3.1501,-3.1524,-3.1566,-3.1603,-3.1664,-3.1669,-3.1698,-3.172,-3.1746,-3.1777,-3.1747,-3.1748,-3.1751,-3.1833,-3.1829,-3.1835,-3.1786,-3.1787,-3.1788,-3.1829,0,-3.1232,-3.1308,-3.134,-3.1401,-3.1441,-3.1467,-3.1504,-3.1544,-3.1573,-3.1611,-3.1643,-3.1686,-3.1688,-3.1707,-3.1734,-3.1767,-3.1794,-3.1765,-3.182,-3.1821,-3.1806,-3.1843,-3.1838,-3.1875,-3.1835,-3.1836,-3.1837,0,-3.1278,-3.1322,-3.1387,-3.1444,-3.1462,-3.1494,-3.1544,-3.1581,-3.1628,-3.1647,-3.1682,-3.1703,-3.1749,-3.1742,-3.1807,-3.1786,-3.1811,-3.1832,-3.1834,-3.1839,-3.1829,-3.1848,-3.1887,-3.1892,-3.1846,-3.1845,-3.1845,0,-3.1279,-3.1354,-3.1404,-3.1427,-3.1493,-3.1516,-3.1545,-3.1591,-3.1621,-3.1665,-3.1685,-3.1734,-3.176,-3.1798,-3.1832,-3.1824,-3.1894,-3.1889,-3.1911,-3.191,-3.1922,-3.1921,-3.1965,-3.194,-3.194,-3.194,-3.194,0,-3.131,-3.1349,-3.1405,-3.1435,-3.1481,-3.1518,-3.1562,-3.1593,-3.1635,-3.1672,-3.1698,-3.1732,-3.1775,-3.1816,-3.1843,-3.1893,-3.1905,-3.1921,-3.1928,-3.1918,-3.1916,-3.1934,-3.1932,-3.1941,-3.1941,-3.1941,-3.1941,0,-3.1317,-3.1357,-3.1412,-3.1472,-3.1488,-3.1519,-3.157,-3.1601,-3.1632,-3.1679,-3.1692,-3.1741,-3.179,-3.1828,-3.1892,-3.191,-3.1963,-3.197,-3.1947,-3.195,-3.1969,-3.1967,-3.2025,-3.2035,-3.2004,-3.2004,-3.2005,0,-3.1334,-3.1365,-3.1429,-3.1456,-3.1485,-3.1529,-3.1559,-3.1598,-3.1629,-3.1687,-3.1712,-3.1763,-3.1806,-3.1884,-3.1924,-3.1974,-3.1982,-3.2,-3.1989,-3.198,-3.1982,-3.198,-3.1983,-3.2,-3.2,-3.2,-3.2,0,-3.136,-3.1379,-3.1422,-3.1473,-3.151,-3.1552,-3.1594,-3.1615,-3.1662,-3.1696,-3.1747,-3.178,-3.1847,-3.1898,-3.1952,-3.1982,-3.1999,-3.2004,-3.2011,-3.2001,-3.1986,-3.1995,-3.1949,-3.2002,-3.2001,-3.2001,-3.2001,-3.2001,-3.1373,-3.1403,-3.1453,-3.1501,-3.1537,-3.1577,-3.161,-3.1646,-3.1689,-3.1747,-3.1767,-3.182,-3.1869,-3.1944,-3.1975,-3.2018,-3.2018,-3.2029,-3.2032,-3.2034,-3.2033,-3.1981,-3.2028,-3.2028,-3.2028,-3.2028,-3.2028,0,-3.14,-3.1435,-3.1479,-3.1538,-3.1576,-3.1591,-3.164,-3.1671,-3.1717,-3.1762,-3.1804,-3.1864,-3.1915,-3.1961,-3.2014,-3.2039,-3.2048,-3.2051,-3.2049,-3.2056,-3.2029,-3.2017,-3.2043,-3.2043,-3.2043,-3.2043,-3.2043,-3.2043,-3.1419,-3.147,-3.1495,-3.1565,-3.1599,-3.1652,-3.1678,-3.1716,-3.1752,-3.1818,-3.186,-3.189,-3.1936,-3.1993,-3.204,-3.2053,-3.2071,-3.2072,-3.2086,-3.206,-3.2058,-3.2056,-3.2045,-3.2076,-3.2076,-3.211,-3.211,-3.211]},{"header":{"parameterUnit":"m.s-1","parameterCategory":1,"la1":30.2991,"la2":30.254,"lo1":-89.0895,"lo2":-89.0444,"dy":0.0017,"dx":0.0017,"nx":28,"ny":28,"refTime":"2024-04-06T09:00:00:Z","depth":0,"parameterNumber":3,"parameterNumberName":"V-component_of_WINDS"},"data":[0,0,0,0,0,0,0,0,0,0,0,0,0,0,0,0,0,0,0,0,0,0,0,0,0,0,0,0,0,0,0,0,0,0,0,0,0,0,0,0,0,0,0,0,0,0,0,0,0,0,0,0,0,0,0,0,0,0,4.3783,4.3783,0,4.382,4.382,4.3821,4.3851,4.3852,4.3852,4.3852,4.3887,4.3888,4.3889,0,0,0,0,0,0,0,0,0,0,0,0,0,4.3738,4.3738,4.3783,4.3783,4.3784,4.382,4.382,4.3821,4.3851,4.3852,4.3852,4.3852,4.3887,4.3888,4.3889,0,0,0,0,0,0,0,0,0,0,0,0,0,4.3764,4.3739,4.3783,4.3803,4.3805,4.382,4.382,4.3821,4.3851,4.3852,4.3852,4.3853,4.3887,4.3888,4.3889,4.3884,0,0,4.3892,4.3892,0,0,0,0,0,0,0,0,4.3763,4.3766,4.38,4.3802,4.3804,4.3831,4.3817,4.3842,4.3851,4.3834,4.3852,4.3853,4.3868,4.3871,4.3876,4.3886,4.3888,4.3892,4.3892,4.3893,4.3893,0,0,0,0,0,0,0,4.3761,4.3764,4.3797,4.38,4.3803,4.381,4.3815,4.3822,4.3847,4.3835,4.3838,4.3842,4.3869,4.3875,4.3877,4.3888,4.3892,4.3892,4.3893,4.3893,4.3898,4.3898,0,0,0,0,0,0,4.3756,4.3763,4.3796,4.3798,4.3784,4.3811,4.3816,4.3822,4.3848,4.3852,4.3841,4.3843,4.3874,4.3876,4.3879,4.3877,4.3893,4.3893,4.3894,4.3899,4.3898,4.3898,0,0,0,0,0,0,4.3755,4.3759,4.3795,4.3781,4.3786,4.3811,4.3818,4.3823,4.3829,4.3852,4.3857,4.3843,4.3874,4.3877,4.3884,4.3878,4.3894,4.3895,4.3899,4.3899,4.3898,4.3872,0,0,0,0,0,0,4.3753,4.3758,4.3757,4.3781,4.3787,4.3799,4.3818,4.3823,4.3831,4.3833,4.3855,4.3859,4.3875,4.3882,4.3884,4.388,4.3895,4.39,4.3899,4.3898,4.3873,4.387,4.3868,0,0,0,0,0,4.3752,4.3747,4.3756,4.376,4.3786,4.3798,4.3802,4.3821,4.383,4.3829,4.3844,4.3858,4.3879,4.3882,4.3885,4.3881,4.39,4.3899,4.3898,4.3874,4.3871,4.3868,0,0,0,0,0,0,4.3719,4.375,4.3761,4.3764,4.3779,4.3804,4.3802,4.3816,4.3828,4.383,4.3853,4.3857,4.3861,4.3872,4.3875,4.3879,4.3891,4.3891,4.3872,4.3869,4.3866,4.3863,4.3896,0,0,0,0,0,4.3713,4.3721,4.3747,4.3747,4.3754,4.3777,4.3783,4.3797,4.3813,4.3819,4.3835,4.3849,4.3859,4.3864,4.3875,4.3875,4.3881,4.3874,4.3871,4.3869,4.3868,4.387,4.3868,4.3895,4.3895,4.3895,0,0,4.3699,4.3717,4.372,4.3741,4.3754,4.3762,4.3782,4.3789,4.3795,4.3819,4.3827,4.3839,4.3856,4.386,4.3862,4.3869,4.3862,4.3868,4.3865,4.3866,4.3869,4.3867,4.3864,4.3894,4.3894,4.3894,0,0,4.3678,4.3692,4.3694,4.3707,4.3727,4.3743,4.3744,4.3767,4.3777,4.3785,4.3804,4.3812,4.3828,4.384,4.3848,4.3834,4.3848,4.3837,4.3822,4.3825,4.3823,4.3821,4.3817,4.3815,4.3836,4.3836,4.3836,0,4.3657,4.3671,4.3693,4.37,4.3709,4.3734,4.3736,4.3748,4.3769,4.3775,4.3783,4.3805,4.3818,4.3826,4.3823,4.3829,4.383,4.3834,4.3821,4.382,4.3818,4.3815,4.3813,4.3835,4.3835,4.3835,4.3835,0,4.3645,4.3654,4.3654,4.3676,4.3685,4.369,4.3713,4.372,4.3734,4.3749,4.3757,4.3775,4.379,4.3793,4.3805,4.3802,4.3806,4.3817,4.383,4.3814,4.3811,4.381,4.3833,4.3833,4.3834,4.3834,0,0,4.3603,4.364,4.3639,4.365,4.3675,4.3683,4.3689,4.3705,4.3711,4.3725,4.3731,4.3746,4.3757,4.3767,4.3781,4.3783,4.3773,4.3794,4.3795,4.379,4.3772,4.3763,4.3761,4.3782,4.3782,4.3782,4.377,0,4.3586,4.3599,4.3621,4.3627,4.3636,4.3661,4.3667,4.3683,4.3697,4.3707,4.3723,4.3734,4.3747,4.3753,4.3756,4.3773,4.3769,4.3774,4.3788,4.3788,4.3782,4.3759,4.375,4.3738,4.3769,4.3769,4.3769,0,4.3567,4.3583,4.359,4.3616,4.3621,4.3626,4.3643,4.3653,4.3672,4.3682,4.3694,4.3711,4.3719,4.3731,4.3743,4.3746,4.3753,4.3763,4.3763,4.3764,4.3777,4.376,4.3735,4.3733,4.3767,4.3767,4.3767,0,4.3536,4.3559,4.3567,4.3575,4.3606,4.3609,4.3622,4.3642,4.3651,4.3666,4.3672,4.3688,4.3696,4.3708,4.3728,4.3735,4.3739,4.3752,4.3748,4.3747,4.3746,4.3746,4.3722,4.3751,4.3751,4.3751,4.3751,0,4.3515,4.3518,4.3553,4.3558,4.3564,4.3589,4.3593,4.3608,4.3626,4.3635,4.3657,4.3664,4.3691,4.3701,4.3717,4.3725,4.3729,4.3738,4.3742,4.3736,4.3735,4.374,4.3741,4.3751,4.3751,4.3751,4.3751,0,4.3481,4.3504,4.3515,4.3544,4.3551,4.3554,4.3579,4.3585,4.3602,4.3612,4.3616,4.3642,4.3656,4.3678,4.3698,4.3709,4.3714,4.3721,4.3708,4.371,4.3705,4.3705,4.3683,4.3682,4.3712,4.3711,4.3711,0,4.3465,4.3469,4.3499,4.3507,4.352,4.3532,4.3542,4.3567,4.3577,4.36,4.3603,4.3619,4.3633,4.3654,4.3674,4.369,4.3697,4.3689,4.37,4.3694,4.3698,4.3697,4.3698,4.3686,4.3685,4.3685,4.3685,0,4.3436,4.3448,4.3462,4.348,4.3492,4.3507,4.3524,4.3529,4.3558,4.3568,4.3583,4.3594,4.3615,4.3631,4.365,4.3663,4.3678,4.3681,4.3681,4.3675,4.3667,4.3672,4.3701,4.3681,4.3682,4.3682,4.3682,4.3682,4.3411,4.3416,4.3439,4.3454,4.347,4.3485,4.3493,4.3512,4.3525,4.3545,4.356,4.3574,4.3595,4.3622,4.3635,4.3646,4.3653,4.3653,4.3653,4.3652,4.365,4.3666,4.365,4.365,4.365,4.365,4.365,0,4.3383,4.34,4.3413,4.3437,4.3449,4.3465,4.3484,4.3493,4.3506,4.3525,4.3539,4.3557,4.3573,4.3596,4.3613,4.3618,4.3626,4.3622,4.3621,4.3624,4.3642,4.3641,4.3615,4.3615,4.3615,4.3615,4.3615,4.3615,4.337,4.338,4.3395,4.3414,4.343,4.3445,4.3455,4.347,4.3485,4.3505,4.3518,4.3534,4.3554,4.3574,4.3589,4.3596,4.3601,4.3595,4.3603,4.362,4.3623,4.3626,4.3625,4.3596,4.3596,4.3584,4.3584,4.3584]}]]